Location: Cieszkowy
(50.3290°N, 20.5336°E)
Time: 15:09:21
(UTC+00:00)

Cosmos 2123 Rocket - Pass Details

Date: 15 June 2024
Orbit: 960 x 991 km, 82.9° (Epoch: 15 July)

Event Time Altitude Azimuth Distance (km) Brightness Sun altitude
Rises 01:31:22 0° 349° (N) 3,658 7.6 -7.0°
Reaches altitude 10° 01:33:52 10° 348° (NNW) 2,708 6.9 -6.8°
Maximum altitude 01:40:04 80° 264° (W) 985 4.0 -6.1°
Drops below altitude 10° 01:46:15 10° 178° (S) 2,701 5.9 -5.5°
Sets 01:48:44 0° 177° (S) 3,648 6.6 -5.2°
